Time,TemperatureF,DewpointF,PressureIn,WindDirection,WindDirectionDegrees,WindSpeedMPH,WindSpeedGustMPH,Humidity,HourlyPrecipIn,Conditions,Clouds,dailyrainin,SoftwareType,DateUTC
2013-11-05 03:48:00,32.9,15.9,23.87,North,-999,-999.0,-999.0,49,-99.99,,,-99.99,Acu-Link.com,2013-11-05 11:48:00,
2013-11-05 09:28:00,55.9,10.4,23.97,North,-999,-999.0,-999.0,16,-99.99,,,-99.99,Acu-Link.com,2013-11-05 17:28:00,
2013-11-05 10:30:00,57.6,11.7,23.98,North,-999,-999.0,-999.0,16,-99.99,,,-99.99,Acu-Link.com,2013-11-05 18:30:00,
2013-11-05 10:46:00,56.7,11.0,23.98,North,-999,-999.0,-999.0,16,-99.99,,,-99.99,Acu-Link.com,2013-11-05 18:46:00,
2013-11-05 11:02:00,56.8,11.1,23.98,North,-999,-999.0,-999.0,16,-99.99,,,-99.99,Acu-Link.com,2013-11-05 19:02:00,
2013-11-05 11:24:00,56.1,10.6,23.98,North,-999,-999.0,-999.0,16,-99.99,,,-99.99,Acu-Link.com,2013-11-05 19:24:00,
2013-11-05 11:40:00,57.0,11.3,23.98,North,-999,-999.0,-999.0,16,-99.99,,,-99.99,Acu-Link.com,2013-11-05 19:40:00,
2013-11-05 11:55:00,57.4,11.6,23.97,North,-999,-999.0,-999.0,16,-99.99,,,-99.99,Acu-Link.com,2013-11-05 19:55:00,
2013-11-05 12:10:00,56.5,10.9,23.96,North,-999,-999.0,-999.0,16,-99.99,,,-99.99,Acu-Link.com,2013-11-05 20:10:00,
2013-11-05 12:27:00,57.2,11.4,23.95,North,-999,-999.0,-999.0,16,-99.99,,,-99.99,Acu-Link.com,2013-11-05 20:27:00,
2013-11-05 12:46:00,56.1,10.6,23.95,North,-999,-999.0,-999.0,16,-99.99,,,-99.99,Acu-Link.com,2013-11-05 20:46:00,
2013-11-05 13:06:00,54.7,9.4,23.95,North,-999,-999.0,-999.0,16,-99.99,,,-99.99,Acu-Link.com,2013-11-05 21:06:00,
2013-11-05 13:39:00,54.5,9.3,23.96,North,-999,-999.0,-999.0,16,-99.99,,,-99.99,Acu-Link.com,2013-11-05 21:39:00,
2013-11-05 14:13:00,54.0,8.8,23.96,North,-999,-999.0,-999.0,16,-99.99,,,-99.99,Acu-Link.com,2013-11-05 22:13:00,
2013-11-05 14:40:00,53.4,8.4,23.95,North,-999,-999.0,-999.0,16,-99.99,,,-99.99,Acu-Link.com,2013-11-05 22:40:00,
2013-11-05 14:55:00,52.9,7.9,23.95,North,-999,-999.0,-999.0,16,-99.99,,,-99.99,Acu-Link.com,2013-11-05 22:55:00,
2013-11-05 15:11:00,52.7,7.8,23.96,North,-999,-999.0,-999.0,16,-99.99,,,-99.99,Acu-Link.com,2013-11-05 23:11:00,
2013-11-05 17:08:00,46.2,2.5,23.97,North,-999,-999.0,-999.0,16,-99.99,,,-99.99,Acu-Link.com,2013-11-06 01:08:00,
2013-11-05 17:29:00,44.6,1.2,23.98,North,-999,-999.0,-999.0,16,-99.99,,,-99.99,Acu-Link.com,2013-11-06 01:29:00,
2013-11-05 17:44:00,43.9,0.6,23.98,North,-999,-999.0,-999.0,16,-99.99,,,-99.99,Acu-Link.com,2013-11-06 01:44:00,
2013-11-05 18:44:00,40.3,5.5,24.00,North,-999,-999.0,-999.0,23,-99.99,,,-99.99,Acu-Link.com,2013-11-06 02:44:00,
2013-11-05 21:14:00,37.8,4.3,24.03,North,-999,-999.0,-999.0,24,-99.99,,,-99.99,Acu-Link.com,2013-11-06 05:14:00,
2013-11-05 22:00:00,37.9,4.4,24.03,North,-999,-999.0,-999.0,24,-99.99,,,-99.99,Acu-Link.com,2013-11-06 06:00:00,